Hourly Weather Rudnya

Today, 22 April, Thursday

Time Temperature Precipitation Wind Pressure Humidity
00:00 +8°C° 0 mm 3 mps 744 mmHg 82%
01:00 +8°C° 0 mm 3 mps 744 mmHg 83%
02:00 +7°C° 0 mm 3 mps 744 mmHg 83%
03:00 +7°C° 0 mm 3 mps 744 mmHg 84%
04:00 +7°C° 0 mm 3 mps 744 mmHg 85%
05:00 +5°C° 0 mm 3 mps 744 mmHg 86%
06:00 +6°C° 0.1 mm 4 mps 744 mmHg 84%
07:00 +7°C° 0.1 mm 4 mps 744 mmHg 82%
08:00 +8°C° 0.1 mm 5 mps 744 mmHg 80%
09:00 +7°C° 0.1 mm 5 mps 745 mmHg 79%
10:00 +7°C° 0.1 mm 5 mps 745 mmHg 78%
11:00 +6°C° 0.1 mm 5 mps 746 mmHg 78%
12:00 +6°C° 0 mm 5 mps 746 mmHg 74%
13:00 +6°C° 0 mm 5 mps 746 mmHg 71%
14:00 +6°C° 0 mm 5 mps 746 mmHg 68%
15:00 +7°C° 0 mm 5 mps 746 mmHg 60%
16:00 +7°C° 0 mm 5 mps 746 mmHg 52%
17:00 +8°C° 0 mm 5 mps 746 mmHg 45%
18:00 +7°C° 0 mm 4 mps 746 mmHg 52%
19:00 +5°C° 0 mm 3 mps 747 mmHg 60%
20:00 +4°C° 0 mm 3 mps 747 mmHg 68%
21:00 +3°C° 0 mm 3 mps 747 mmHg 70%
22:00 +3°C° 0 mm 3 mps 747 mmHg 72%
23:00 +1°C° 0 mm 4 mps 747 mmHg 75%

Tomorrow, 23 April, Friday

Time Temperature Precipitation Wind Pressure Humidity
00:00 +1°C° 0 mm 4 mps 747 mmHg 76%
01:00 +1°C° 0 mm 4 mps 747 mmHg 77%
02:00 0°C° 0 mm 4 mps 747 mmHg 78%
03:00 0°C° 0 mm 4 mps 747 mmHg 78%
04:00 -1°C° 0 mm 4 mps 748 mmHg 78%
05:00 -1°C° 0 mm 4 mps 748 mmHg 78%
06:00 0°C° 0 mm 5 mps 748 mmHg 72%
07:00 +1°C° 0 mm 5 mps 748 mmHg 67%
08:00 +2°C° 0 mm 6 mps 749 mmHg 61%
09:00 +3°C° 0.1 mm 6 mps 749 mmHg 58%
10:00 +4°C° 0.1 mm 6 mps 749 mmHg 55%
11:00 +5°C° 0.1 mm 6 mps 749 mmHg 52%
12:00 +7°C° 0.2 mm 6 mps 749 mmHg 49%
13:00 +7°C° 0.2 mm 6 mps 749 mmHg 46%
14:00 +8°C° 0.2 mm 6 mps 749 mmHg 43%
15:00 +7°C° 0.2 mm 6 mps 749 mmHg 47%
16:00 +7°C° 0.2 mm 5 mps 749 mmHg 51%
17:00 +7°C° 0.2 mm 5 mps 749 mmHg 54%
18:00 +6°C° 0.3 mm 5 mps 749 mmHg 62%
19:00 +5°C° 0.3 mm 4 mps 749 mmHg 70%
20:00 +3°C° 0.3 mm 4 mps 749 mmHg 78%
21:00 +1°C° 0.5 mm 4 mps 749 mmHg 81%
22:00 +1°C° 0.5 mm 4 mps 749 mmHg 85%
23:00 0°C° 0.5 mm 4 mps 749 mmHg 88%

Day after tomorrow, 24 April, Saturday

Time Temperature Precipitation Wind Pressure Humidity
00:00 -1°C° 0 mm 4 mps 750 mmHg 87%
01:00 -1°C° 0 mm 4 mps 750 mmHg 87%
02:00 -2°C° 0 mm 4 mps 750 mmHg 86%
03:00 -2°C° 0 mm 4 mps 750 mmHg 88%
04:00 -3°C° 0 mm 4 mps 751 mmHg 89%
05:00 -2°C° 0 mm 3 mps 751 mmHg 91%
06:00 -2°C° 0 mm 4 mps 751 mmHg 83%
07:00 -1°C° 0 mm 4 mps 751 mmHg 76%
08:00 +1°C° 0 mm 4 mps 751 mmHg 68%
09:00 +2°C° 0 mm 5 mps 751 mmHg 61%
10:00 +5°C° 0 mm 5 mps 751 mmHg 53%
11:00 +6°C° 0 mm 5 mps 751 mmHg 46%
12:00 +5°C° 0 mm 6 mps 751 mmHg 44%
13:00 +7°C° 0 mm 6 mps 751 mmHg 43%
14:00 +7°C° 0 mm 6 mps 751 mmHg 41%
15:00 +7°C° 0.1 mm 6 mps 751 mmHg 43%
16:00 +7°C° 0.1 mm 6 mps 750 mmHg 46%
17:00 +7°C° 0.1 mm 5 mps 750 mmHg 48%
18:00 +5°C° 0 mm 4 mps 750 mmHg 55%
19:00 +4°C° 0 mm 3 mps 750 mmHg 62%
20:00 +4°C° 0 mm 1 mps 750 mmHg 70%
21:00 +4°C° 0 mm 1 mps 750 mmHg 72%
22:00 +4°C° 0 mm 1 mps 750 mmHg 74%
23:00 +2°C° 0 mm 2 mps 750 mmHg 77%

25 April, Sunday

Time Temperature Precipitation Wind Pressure Humidity
00:00 +2°C° 0 mm 2 mps 750 mmHg 80%
01:00 +2°C° 0 mm 2 mps 750 mmHg 83%
02:00 +1°C° 0 mm 2 mps 750 mmHg 86%
03:00 +1°C° 0 mm 2 mps 750 mmHg 84%
04:00 -1°C° 0 mm 2 mps 750 mmHg 82%
05:00 -1°C° 0 mm 3 mps 750 mmHg 81%
06:00 0°C° 0 mm 3 mps 750 mmHg 74%
07:00 +1°C° 0 mm 3 mps 750 mmHg 67%
08:00 +1°C° 0 mm 4 mps 751 mmHg 60%
09:00 +3°C° 0 mm 4 mps 751 mmHg 55%
10:00 +4°C° 0 mm 4 mps 750 mmHg 50%
11:00 +5°C° 0 mm 4 mps 750 mmHg 45%
12:00 +5°C° 0.1 mm 5 mps 750 mmHg 45%
13:00 +6°C° 0.1 mm 5 mps 750 mmHg 44%
14:00 +6°C° 0.1 mm 5 mps 750 mmHg 44%
15:00 +6°C° 0.2 mm 5 mps 750 mmHg 47%
16:00 +6°C° 0.2 mm 5 mps 749 mmHg 50%
17:00 +6°C° 0.2 mm 5 mps 749 mmHg 53%
18:00 +3°C° 0.1 mm 5 mps 749 mmHg 59%
19:00 +3°C° 0.1 mm 4 mps 749 mmHg 65%
20:00 +2°C° 0.1 mm 3 mps 749 mmHg 70%
21:00 +2°C° 0.1 mm 3 mps 749 mmHg 75%
22:00 +1°C° 0.1 mm 3 mps 749 mmHg 79%
23:00 +2°C° 0.1 mm 2 mps 749 mmHg 83%

26 April, Monday

Time Temperature Precipitation Wind Pressure Humidity
00:00 0°C° 0 mm 3 mps 749 mmHg 82%
01:00 0°C° 0 mm 3 mps 749 mmHg 82%
02:00 0°C° 0 mm 3 mps 749 mmHg 82%
03:00 -1°C° 0 mm 3 mps 749 mmHg 83%
04:00 -2°C° 0 mm 3 mps 749 mmHg 85%
05:00 -3°C° 0 mm 2 mps 749 mmHg 87%
06:00 -1°C° 0 mm 3 mps 749 mmHg 79%
07:00 -1°C° 0 mm 4 mps 749 mmHg 72%
08:00 +1°C° 0 mm 4 mps 749 mmHg 64%
09:00 +2°C° 0 mm 5 mps 749 mmHg 58%
10:00 +3°C° 0 mm 5 mps 748 mmHg 52%
11:00 +4°C° 0 mm 6 mps 748 mmHg 46%
12:00 +5°C° 0.1 mm 6 mps 748 mmHg 46%
13:00 +5°C° 0.1 mm 6 mps 748 mmHg 45%
14:00 +7°C° 0.1 mm 6 mps 747 mmHg 45%
15:00 +7°C° 0.1 mm 6 mps 747 mmHg 48%
16:00 +7°C° 0.1 mm 6 mps 747 mmHg 51%
17:00 +7°C° 0.1 mm 6 mps 747 mmHg 54%
18:00 +5°C° 0.1 mm 5 mps 747 mmHg 62%
19:00 +4°C° 0.1 mm 4 mps 747 mmHg 69%
20:00 +4°C° 0.1 mm 2 mps 747 mmHg 77%
21:00 +3°C° 0 mm 2 mps 747 mmHg 80%
22:00 +2°C° 0 mm 2 mps 748 mmHg 83%
23:00 +1°C° 0 mm 2 mps 748 mmHg 86%

27 April, Tuesday

Time Temperature Precipitation Wind Pressure Humidity
00:00 +1°C° 0 mm 2 mps 748 mmHg 88%
01:00 -1°C° 0 mm 2 mps 748 mmHg 89%
02:00 -1°C° 0 mm 2 mps 748 mmHg 91%
03:00 -1°C° 0 mm 2 mps 748 mmHg 91%
04:00 0°C° 0 mm 1 mps 748 mmHg 92%
05:00 0°C° 0 mm 1 mps 748 mmHg 92%
06:00 +2°C° 0 mm 1 mps 748 mmHg 84%
07:00 +4°C° 0 mm 1 mps 748 mmHg 77%
08:00 +4°C° 0 mm 0 mps 748 mmHg 69%
09:00 +6°C° 0 mm 0 mps 748 mmHg 62%
10:00 +7°C° 0 mm 0 mps 748 mmHg 56%
11:00 +9°C° 0 mm 0 mps 748 mmHg 49%
12:00 +11°C° 0 mm 1 mps 747 mmHg 46%
13:00 +11°C° 0 mm 1 mps 747 mmHg 43%
14:00 +12°C° 0 mm 1 mps 746 mmHg 41%
15:00 +12°C° 0 mm 1 mps 746 mmHg 41%
16:00 +12°C° 0 mm 1 mps 746 mmHg 41%
17:00 +13°C° 0 mm 2 mps 745 mmHg 41%
18:00 +10°C° 0 mm 2 mps 745 mmHg 47%
19:00 +9°C° 0 mm 2 mps 745 mmHg 54%
20:00 +7°C° 0 mm 3 mps 745 mmHg 60%
21:00 +7°C° 0 mm 3 mps 744 mmHg 62%
22:00 +5°C° 0 mm 3 mps 744 mmHg 63%
23:00 +4°C° 0 mm 4 mps 744 mmHg 65%
Show more